Flag for Switzerland Weather past 2 weeks in Liestal, Basel-Land, Switzerland

Now
68 °F

Light rain. Mostly cloudy.


Feels Like: 68 °F
Forecast: 60 / 76 °F
Wind: No wind

Location: Bale-Mulhouse

Current Time: Aug 2, 2014 at 9:47:37 AM

Latest Report: Aug 2, 2014 at 9:00 AM


Visibility: N/A

Pressure: 29.83 "Hg

Humidity: 83%

Dew point: 63 °F

Location of LiestalLocation

Historic Weather in Liestal — Graph

°F

Liestal temperature yesterday

Maximum temperature yesterday: 81 °F (at 3:00 PM)
Minimum temperature yesterday: 55 °F (at 5:30 AM)
Average temperature yesterday: 69 °F

Past Weeks' High & Low Weather Summary

 TemperatureHumidityPressure
High93 °F (Jul 18, 4:35 PM)100% (Jul 22, 10:00 AM)30.09 "Hg (Jul 22, 10:00 AM)
Low55 °F (Jul 25, 5:30 AM)20% (Jul 18, 5:00 PM)29.77 "Hg (Aug 2, 5:00 AM)
Average68 °F80%29.92 "Hg
* Reported Jul 18 9:00 AM — Aug 2 9:00 AM, Liestal, Weather by CustomWeather, © 2014

Note: Actual official high and low records may vary slightly from our data, if they occured in-between our weather recording intervals... More about our weather records

Advertising

Liestal weather history for previous 24 hours

 ConditionsComfort  
Time TempWeatherWind HumidityBarometerVisibility
9:00 AM
Aug 2
68 °FLight rain. Mostly cloudy.No wind83%29.83 "HgN/A
8:00 AM66 °FMostly cloudy.1 mph88%29.80 "Hg6 mi
7:30 AM64 °FPartly sunny.2 mph94%29.80 "Hg6 mi
7:00 AM64 °FPassing clouds.3 mph94%29.80 "Hg6 mi
6:30 AM64 °FPartly cloudy.3 mph88%29.80 "Hg6 mi
6:00 AM64 °FPassing clouds.5 mph88%29.80 "Hg6 mi
5:30 AM64 °FFog.5 mph94%29.80 "Hg6 mi
5:00 AM63 °FFog.3 mph94%29.77 "HgN/A
4:30 AM63 °FFog.2 mph94%29.80 "HgN/A
4:00 AM63 °FFog.No wind94%29.80 "Hg2 mi
3:30 AM63 °FFog.3 mph94%29.80 "Hg3 mi
3:00 AM64 °FFog.5 mph88%29.80 "Hg3 mi
2:30 AM64 °FFog.2 mph88%29.80 "Hg2 mi
2:00 AM64 °FFog.2 mph88%29.80 "Hg2 mi
1:30 AM64 °FFog.2 mph88%29.80 "Hg3 mi
1:00 AM66 °FFog.1 mph88%29.80 "Hg3 mi
12:30 AM64 °FPartly cloudy.3 mph94%29.80 "HgN/A
12:00 AM66 °FPassing clouds.5 mph88%29.80 "HgN/A
11:30 PM
Aug 1
66 °FPassing clouds.No wind88%29.80 "HgN/A
11:00 PM68 °FPassing clouds.2 mph83%29.80 "HgN/A
10:30 PM68 °FPassing clouds.2 mph83%29.80 "HgN/A
10:00 PM68 °FPartly sunny.2 mph88%29.80 "HgN/A
9:30 PM68 °FPartly sunny.2 mph88%29.80 "HgN/A
9:00 PM72 °FPartly sunny.2 mph83%29.80 "HgN/A
8:30 PM75 °FPartly sunny.2 mph74%29.80 "HgN/A
8:00 PM77 °FPartly sunny.2 mph69%29.80 "HgN/A
7:30 PM79 °FPartly sunny.2 mph58%29.80 "HgN/A
7:00 PM81 °FScattered clouds.2 mph48%29.80 "HgN/A
6:30 PM81 °FScattered clouds.3 mph48%29.80 "HgN/A
6:06 PM81 °FScattered clouds.2 mph48%29.80 "HgN/A
5:30 PM81 °FScattered clouds.3 mph51%29.80 "HgN/A
5:00 PM81 °FScattered clouds.3 mph51%29.80 "HgN/A
4:30 PM81 °FScattered clouds.5 mph54%29.80 "HgN/A
4:00 PM81 °FPassing clouds.5 mph54%29.80 "HgN/A
3:30 PM81 °FPassing clouds.3 mph58%29.83 "HgN/A
3:00 PM81 °FPassing clouds.2 mph51%29.83 "HgN/A
2:30 PM79 °FPassing clouds.3 mph54%29.83 "HgN/A
2:00 PM79 °FPassing clouds.2 mph51%29.83 "HgN/A
1:30 PM77 °FPassing clouds.2 mph57%29.86 "HgN/A
1:00 PM77 °FPassing clouds.2 mph57%29.86 "HgN/A
12:30 PM77 °FPassing clouds.2 mph54%29.86 "HgN/A
12:00 PM75 °FScattered clouds.3 mph57%29.86 "HgN/A
11:30 AM73 °FPartly sunny.3 mph61%29.89 "HgN/A
11:00 AM72 °FPartly sunny.5 mph61%29.89 "HgN/A
10:30 AM70 °FSunny.2 mph73%29.89 "Hg10 mi
10:00 AM70 °FPassing clouds.3 mph78%29.89 "HgN/A
9:30 AM68 °FPartly sunny.3 mph78%29.89 "HgN/A
9:00 AM66 °FPartly sunny.5 mph83%29.89 "Hg5 mi
Weather by CustomWeather, © 2014

See weather overviewHow to use our weather pages